293P/Spacewatch (2020)

Japanese version
Home page
Updated on February 20, 2021

---------------------------------------------------------------------

* Profile

* Pictures

* Orbital Elements

Epoch 2020 Dec. 17.0 TT = JDT 2459200.5
T 2020 Dec. 19.27514 TT                                 Rudenko
q   2.1198430            (2000.0)            P               Q
n   0.14167640     Peri.   41.05892     -0.48395240     -0.86140155
a   3.6442181      Node    78.41148     +0.75613329     -0.50032225
e   0.4182996      Incl.    9.05648     +0.44051392     -0.08755011
P   6.96
From 356 observations 2006 Nov. 15-2021 Jan. 20, mean residual 0".6.

* Magnitudes Graph

        m1 = 14.5 + 5 log d + 10.0 log r

---------------------------------------------------------------------

The orbital elements are published on M.P.E.C. 2021-B143.
The magnitudes graphs are made with Comet for Windows.

---------------------------------------------------------------------

Copyright(C) Seiichi Yoshida (comet@aerith.net). All rights reserved.